Retour au catalogue

COSMOS 1566

ActifMilitaireLEO
NORAD 15005·PAYLOAD·🇷🇺 Russia

Lancé May 28, 1984 depuis Plesetsk Cosmodrome

Loading…

Prochains Passages (prochaines 24 heures)

TLE

FraisSource: Space-Track

Époque: Sep 14, 2026, 19:25 UTC

1 15005U 84052H   26257.80923552 -.00000015  00000-0  11136-4 0  9999
2 15005  74.0091 270.8365 0051717 352.7036 180.1795 12.57385659941378

Suivez COSMOS 1566 en temps réel avec AllMySat

Download on the App Store